Weather History for Defiance, OH

Change the Weather History Date:

Sunday, July 28, 2013

  Actual Average Record
Temperature  
Mean Temperature 58 °F -  
Max Temperature 69 °F 83 °F 99 °F (1941)
Min Temperature 51 °F 60 °F 51 °F (1971)
Degree Days  
Heating Degree Days 6    
Growing Degree Days 8 (Base 50)    
Moisture  
Dew Point 49 °F    
Average Humidity 71    
Maximum Humidity 93    
Minimum Humidity 52    
Precipitation  
Precipitation 0.01 in - - ()
Sea Level Pressure  
Sea Level Pressure 29.94 in    
Wind  
Wind Speed 4 mph (SW)    
Max Wind Speed 12 mph    
Max Gust Speed 22 mph    
Visibility 10 miles    
Events Rain    
Averages and records for this station are not official NWS values.
T = Trace of Precipitation, MM = Missing Value Source: NWS Daily Summary

Daily Weather History Graph

Daily Weather History Graph

Search for Another Location

Airport:

Trip Planner

Search our weather history database for the weather conditions in past years. The results will help you decide how hot, cold, wet, or windy it might be!

Date:

Astronomy

Jul. 28, 2013 Rise Set
Actual Time 6:29 AM EDT 8:58 PM EDT
Civil Twilight 5:57 AM EDT 9:30 PM EDT
Nautical Twilight 5:18 AM EDT 10:09 PM EDT
Astronomical Twilight 4:34 AM EDT 10:52 PM EDT
Moon No Moon Rise 1:15 PM EDT (7/28)
Length of Visible Light 15h 32m
Length of Day
14h 29m
Waning Gibbous, 61% of the Moon is Illuminated
Jul 28
Waning Gibbous
Jul 29
Last Quarter
Aug 6
New
Aug 14
First Quarter
Aug 20
Full

Hourly Weather History & Observations

Time (EDT) Temp. Dew Point Humidity Pressure Visibility Wind Dir Wind Speed Gust Speed Precip Events Conditions
12:53 AM 53.1 °F 50.0 °F 89% 29.91 in 10.0 mi Calm Calm - N/A   Clear
1:53 AM 51.1 °F 48.9 °F 92% 29.90 in 10.0 mi Calm Calm - N/A   Clear
2:53 AM 52.0 °F 50.0 °F 93% 29.89 in 10.0 mi SW 3.5 mph - N/A   Clear
3:53 AM 51.1 °F 48.9 °F 92% 29.89 in 10.0 mi SSW 3.5 mph - N/A   Clear
4:53 AM 51.1 °F 48.0 °F 89% 29.90 in 10.0 mi SSW 5.8 mph - N/A   Clear
5:53 AM 51.1 °F 48.0 °F 89% 29.90 in 10.0 mi SSW 4.6 mph - N/A   Clear
6:53 AM 52.0 °F 48.9 °F 89% 29.91 in 10.0 mi SSW 4.6 mph - N/A   Clear
7:53 AM 55.0 °F 50.0 °F 83% 29.93 in 10.0 mi SSW 5.8 mph - N/A   Clear
8:53 AM 57.9 °F 50.0 °F 75% 29.94 in 10.0 mi SW 9.2 mph - N/A   Clear
9:53 AM 62.1 °F 48.0 °F 60% 29.94 in 10.0 mi WSW 8.1 mph - N/A   Mostly Cloudy
10:53 AM 62.1 °F 48.0 °F 60% 29.94 in 10.0 mi WSW 11.5 mph 19.6 mph N/A   Overcast
11:53 AM 64.9 °F 48.9 °F 56% 29.93 in 10.0 mi WSW 8.1 mph 21.9 mph N/A   Mostly Cloudy
12:53 PM 66.0 °F 48.9 °F 54% 29.92 in 10.0 mi WSW 8.1 mph - N/A   Overcast
1:53 PM 66.9 °F 48.9 °F 52% 29.93 in 10.0 mi SW 11.5 mph 19.6 mph N/A   Overcast
2:53 PM 66.9 °F 48.9 °F 52% 29.93 in 10.0 mi SW 6.9 mph - N/A   Overcast
3:53 PM 64.0 °F 51.1 °F 63% 29.94 in 10.0 mi Variable 4.6 mph - 0.00 in Rain Light Rain
4:53 PM 66.9 °F 48.9 °F 52% 29.95 in 10.0 mi West 8.1 mph - 0.01 in   Mostly Cloudy
5:53 PM 66.9 °F 48.9 °F 52% 29.96 in 10.0 mi West 6.9 mph - N/A   Overcast
6:53 PM 64.9 °F 46.9 °F 52% 29.97 in 10.0 mi Variable 5.8 mph - N/A   Mostly Cloudy
7:53 PM 64.0 °F 50.0 °F 60% 29.99 in 10.0 mi Variable 3.5 mph - N/A   Mostly Cloudy
8:53 PM 62.1 °F 48.9 °F 62% 30.01 in 10.0 mi Calm Calm - N/A   Clear
9:53 PM 57.9 °F 48.9 °F 72% 30.02 in 10.0 mi Calm Calm - N/A   Clear
10:53 PM 57.0 °F 51.1 °F 81% 30.03 in 10.0 mi Calm Calm - N/A   Clear
11:53 PM 55.0 °F 50.0 °F 83% 30.02 in 10.0 mi Calm Calm - N/A   Clear